Location: PACMO
(41.3967°N, 90.3760°W)
Time: 07:18:05
(UTC-05:00)

NOAA 19 - Visible Passes

Search period start: 21 April 2014 00:00
Search period end: 01 May 2014 00:00
Orbit: 844 x 863 km, 98.9° (Epoch: 20 April)

Date Brightness Start Highest point End Pass type
(mag) Time Alt. Az. Time Alt. Az. Time Alt. Az.
21 Apr 6.9 02:13:02 10° NE 02:17:10 25° E 02:17:10 25° E visible
21 Apr 5.6 03:53:12 10° N 03:58:27 45° WNW 03:59:14 42° W visible
22 Apr 7.2 02:02:27 10° NE 02:06:08 20° E 02:06:08 20° E visible
22 Apr 5.3 03:42:05 10° N 03:47:31 55° WNW 03:48:12 52° W visible
23 Apr 7.4 01:52:02 10° NE 01:55:05 16° E 01:55:05 16° E visible
23 Apr 5.1 03:31:02 10° N 03:36:34 69° WNW 03:37:09 63° WSW visible
23 Apr 7.3 05:15:41 10° NW 05:16:15 10° NW 05:16:49 10° WNW visible
24 Apr 7.6 01:42:00 10° ENE 01:44:03 12° E 01:44:03 12° E visible
24 Apr 5.0 03:20:00 10° NNE 03:25:35 85° WNW 03:26:07 74° SSW visible
24 Apr 7.2 05:03:07 10° NNW 05:05:27 13° WNW 05:07:47 10° W visible
25 Apr 5.1 03:09:01 10° NNE 03:14:36 78° ESE 03:15:04 72° SSE visible
25 Apr 7.0 04:51:26 10° NNW 04:54:38 16° WNW 04:57:09 12° W visible
26 Apr 5.4 02:58:04 10° NNE 03:03:35 63° ESE 03:04:02 60° SE visible
26 Apr 6.8 04:39:58 10° NNW 04:43:47 19° WNW 04:46:06 15° W visible
27 Apr 5.7 02:47:09 10° NNE 02:52:33 50° E 02:52:59 49° ESE visible
27 Apr 6.6 04:28:37 10° NNW 04:32:56 24° WNW 04:35:03 19° W visible
28 Apr 6.1 02:36:18 10° NNE 02:41:31 40° E 02:41:56 39° ESE visible
28 Apr 6.3 04:17:22 10° N 04:22:03 29° WNW 04:24:00 23° W visible
29 Apr 6.4 02:25:31 10° NE 02:30:26 32° E 02:30:53 32° ESE visible
29 Apr 6.0 04:06:09 10° N 04:11:09 35° WNW 04:12:57 28° WSW visible
30 Apr 6.7 02:14:48 10° NE 02:19:21 26° E 02:19:50 25° ESE visible
30 Apr 5.7 03:55:00 10° N 04:00:14 43° WNW 04:01:54 34° WSW visible
